Regional Weather Roundup
Issued by NWS

Home | Current Version | Previous Version | Graphics & Text | Print | Product List | Glossary On
Versions: 1 2 3 4 5 6 7 8 9 10 11 12 13 14 15 16 17 18 19 20 21 22 23 24 25 26 27 28 29 30 31 32 33 34 35 36 37 38 39 40 41 42 43 44 45 46 47 48 49 50
000
ASUS43 KIND 180759
RWRIN

WEATHER ROUNDUP FOR INDIANA
NATIONAL WEATHER SERVICE INDIANAPOLIS IN
300 AM EST THU JAN 18 2018

NOTE: "FAIR" INDICATES FEW OR NO CLOUDS BELOW 12,000 FEET WITH NO
SIGNIFICANT WEATHER AND/OR OBSTRUCTIONS TO VISIBILITY.

* - STATION DOES NOT REPORT WEATHER SUCH AS PRECIPITATION OR FOG.

+ - STATION NOT QUALITY CONTROLLED BY THE NATIONAL WEATHER SERVICE.
    USE DATA WITH CAUTION...ESPECIALLY DEWPOINT AND RELATIVE
    HUMIDITY OBSERVATIONS.

INZ001>003-010>013-019-020-180900-
NORTHWEST INDIANA

CITY           SKY/WX    TMP DP  RH WIND       PRES   REMARKS
KNOX *+        FAIR      18  10  73 SW16G22   30.24S WCI   3
MICHIGAN CITY+ FAIR      18   9  68 SW10      30.22F WCI   6
MONTICELLO +   FAIR      15   7  70 SW14G20   30.28F WCI   0

$$

LMZ046-743>745-180900-
SOUTHERN LAKE MICHIGAN

STATION/POSITION TIME  TEMP    WIND        PRES    WAVE
                       AIR SEA DIR/SP/G            HT
                 (UTC) (F)     (DEG/KT/KT) (MB)    (FT)
BURNS HARBOR     0740   17     220/ 13/ 18 1024.0S
MICHIGAN CITY    0730   17     200/ 15/ 17   N/A

$$

INZ004-005-014>016-021>024-180900-
NORTH CENTRAL INDIANA

CITY           SKY/WX    TMP DP  RH WIND       PRES   REMARKS
GOSHEN         FAIR      14   8  77 SW16G26   30.21S WCI  -2
PERU/GRISSOM   FAIR      15   9  79 W20       30.26F WCI  -3
SOUTH BEND     FAIR      14   8  77 SW16      30.20F WCI  -2

$$

INZ006>009-017-018-025>027-180900-
NORTHEAST INDIANA

CITY           SKY/WX    TMP DP  RH WIND       PRES   REMARKS
FORT WAYNE     FAIR      14   7  73 SW15      30.25F WCI  -1
KENDALLVILLE + FAIR      15   8  76 W14G21    30.19S WCI   0

$$

INZ028-029-035-036-043>045-051>053-180900-
WEST CENTRAL INDIANA

CITY           SKY/WX    TMP DP  RH WIND       PRES   REMARKS
GREENCASTLE +  FAIR      10   5  79 SW3       30.37F
LAFAYETTE      FAIR      14   8  77 SW10      30.32F WCI   1
TERRE HAUTE    FAIR       9   3  77 S6        30.40S WCI  -1

$$

INZ030>032-037>040-046>048-054>057-064-065-180900-
CENTRAL INDIANA

CITY           SKY/WX    TMP DP  RH WIND       PRES   REMARKS
GREENWOOD *+   FAIR      12   7  78 SW8       30.37F WCI   1
INDIANAPOLIS   FAIR      10   5  80 SW12      30.36F WCI  -5
-EAGLE CREEK   FAIR       9   4  80 S7        30.34F WCI  -2
MT COMFORT *+  FAIR       7   5  92 S8        30.34F WCI  -6
SHELBYVILLE    FAIR       8   2  76 S10       30.37F WCI  -6

$$

INZ033-034-041-042-049-050-058-059-180900-
EAST CENTRAL INDIANA

CITY           SKY/WX    TMP DP  RH WIND       PRES   REMARKS
MUNCIE         FAIR      13   5  70 SW13G22   30.30S WCI  -2
RICHMOND +     FAIR       9   5  85 SW15      30.33F WCI  -8

$$

INZ060-061-067>069-081>083-085>088-180900-
SOUTHWEST INDIANA

CITY           SKY/WX    TMP DP  RH WIND       PRES   REMARKS
EVANSVILLE     FAIR      10   7  87 SW9       30.49S WCI  -3

$$

INZ062-063-066-070>080-084-089>092-180900-
SOUTH CENTRAL AND SOUTHEAST INDIANA

CITY           SKY/WX    TMP DP  RH WIND       PRES   REMARKS
BLOOMINGTON    FAIR      11   5  77 SW8       30.40S WCI  -1
FRENCH LICK *+ FAIR      10   5  79 CALM      30.43S
MADISON *+     FAIR       9   5  85 SW3       30.45S
SEYMOUR +      FAIR       7   1  78 S3        30.44S

$$





USA.gov is the U.S. government's official web portal to all federal, state and local government web resources and services.